Change the Weather History Date:

Monday, December 26, 2011

  Actual Average (KEKN) Record (KEKN)
Temperature  
Mean Temperature 37 °F 30 °F  
Max Temperature 42 °F 40 °F 62 °F (1964)
Min Temperature 32 °F 20 °F -11 °F (1980)
Degree Days  
Heating Degree Days 28 35  
Month to date heating degree days 833  
Since 1 July heating degree days 2117  
Cooling Degree Days 0 0  
Month to date cooling degree days 0  
Year to date cooling degree days 475  
Moisture  
Dew Point 26 °F    
Average Humidity 67    
Maximum Humidity 81    
Minimum Humidity 49    
Precipitation  
Precipitation 0.00 in 0.09 in 0.99 in (1930)
Month to date precipitation 2.77  
Year to date precipitation 45.44  
Snow  
Snow 0.00 in - - ()
Month to date snowfall  
Since 1 September snowfall  
Snow Depth -    
Sea Level Pressure  
Sea Level Pressure 30.29 in    
Wind  
Wind Speed 6 mph (West)    
Max Wind Speed 16 mph    
Max Gust Speed 22 mph    
Visibility 10 miles    
Events      
T = Trace of Precipitation, MM = Missing Value Source: NWS Daily Summary

Daily Weather History Graph

Daily Weather History Graph

Search for Another Location

Airport or City:

Trip Planner

Search our weather history database for the weather conditions in past years. The results will help you decide how hot, cold, wet, or windy it might be!

Date:

Astronomy

Dec. 26, 2011 Rise Set
Actual Time 7:38 AM EST 5:04 PM EST
Civil Twilight 7:08 AM EST 5:34 PM EST
Nautical Twilight 6:34 AM EST 6:08 PM EST
Astronomical Twilight 6:02 AM EST 6:40 PM EST
Moon 8:58 AM EST (12/26) 7:30 PM EST (12/26)
Length of Visible Light 10h 26m
Length of Day
9h 26m
Waxing Crescent, 5% of the Moon is Illuminated
Dec 26
Waxing Crescent
Jan 1
First Quarter
Jan 9
Full
Jan 16
Last Quarter
Jan 23
New

Hourly Weather History & Observations

Time (EST) Temp. Windchill Dew Point Humidity Pressure Visibility Wind Dir Wind Speed Gust Speed Precip Events Conditions
12:15 AM 37.4 °F 32.8 °F 28.4 °F 70% 30.20 in 10.0 mi West 5.8 mph - N/A   Overcast
12:35 AM 37.4 °F 28.9 °F 28.4 °F 70% 30.21 in 10.0 mi West 13.8 mph 19.6 mph N/A   Overcast
12:55 AM 37.4 °F 28.2 °F 26.6 °F 65% 30.22 in 10.0 mi West 16.1 mph 21.9 mph N/A   Overcast
1:15 AM 37.4 °F 29.8 °F 26.6 °F 65% 30.22 in 10.0 mi West 11.5 mph 18.4 mph N/A   Overcast
1:35 AM 37.4 °F 30.8 °F 26.6 °F 65% 30.23 in 10.0 mi NNW 9.2 mph - N/A   Overcast
1:55 AM 35.6 °F 28.0 °F 26.6 °F 70% 30.24 in 10.0 mi NW 10.4 mph 18.4 mph N/A   Mostly Cloudy
2:15 AM 35.6 °F 26.2 °F 26.6 °F 70% 30.25 in 10.0 mi NNW 15.0 mph 21.9 mph N/A   Overcast
2:35 AM 35.6 °F 27.5 °F 26.6 °F 70% 30.27 in 10.0 mi NNW 11.5 mph 18.4 mph N/A   Overcast
2:55 AM 35.6 °F 30.7 °F 24.8 °F 65% 30.28 in 10.0 mi NNW 5.8 mph - N/A   Overcast
3:35 AM 35.6 °F 30.7 °F 24.8 °F 65% 30.28 in 10.0 mi WNW 5.8 mph - N/A   Overcast
3:55 AM 35.6 °F 32.8 °F 24.8 °F 65% 30.28 in 10.0 mi WNW 3.5 mph - N/A   Mostly Cloudy
4:15 AM 35.6 °F 30.7 °F 26.6 °F 70% 30.27 in 10.0 mi West 5.8 mph - N/A   Overcast
4:35 AM 35.6 °F 29.9 °F 26.6 °F 70% 30.28 in 10.0 mi West 6.9 mph - N/A   Overcast
4:55 AM 33.8 °F - 26.6 °F 75% 30.28 in 10.0 mi Calm Calm - N/A   Overcast
5:15 AM 33.8 °F 30.8 °F 24.8 °F 70% 30.28 in 10.0 mi West 3.5 mph - N/A   Overcast
5:35 AM 33.8 °F - 24.8 °F 70% 30.28 in 10.0 mi Calm Calm - N/A   Partly Cloudy
5:55 AM 33.8 °F - 24.8 °F 70% 30.28 in 10.0 mi Calm Calm - N/A   Clear
6:15 AM 32.0 °F 26.4 °F 24.8 °F 75% 30.29 in 10.0 mi WSW 5.8 mph - N/A   Clear
6:35 AM 32.0 °F - 26.6 °F 80% 30.30 in 10.0 mi Calm Calm - N/A   Partly Cloudy
6:55 AM 32.0 °F 24.8 °F 26.6 °F 80% 30.32 in 10.0 mi West 8.1 mph - N/A   Mostly Cloudy
7:15 AM 33.8 °F 27.7 °F 26.6 °F 75% 30.33 in 10.0 mi West 6.9 mph - N/A   Overcast
7:35 AM 33.8 °F 27.0 °F 24.8 °F 70% 30.34 in 10.0 mi West 8.1 mph - N/A   Overcast
7:55 AM 33.8 °F 30.8 °F 26.6 °F 75% 30.35 in 10.0 mi WNW 3.5 mph - N/A   Overcast
8:15 AM 33.8 °F 30.8 °F 26.6 °F 75% 30.36 in 10.0 mi WNW 3.5 mph - N/A   Overcast
8:35 AM 33.8 °F 28.6 °F 26.6 °F 75% 30.37 in 10.0 mi WNW 5.8 mph - N/A   Overcast
8:55 AM 33.8 °F - 26.6 °F 75% 30.38 in 10.0 mi Calm Calm - N/A   Overcast
9:15 AM 33.8 °F - 28.4 °F 81% 30.38 in 10.0 mi Calm Calm - N/A   Overcast
9:35 AM 33.8 °F - 28.4 °F 81% 30.38 in 10.0 mi Calm Calm - N/A   Overcast
9:55 AM 33.8 °F - 28.4 °F 81% 30.38 in 10.0 mi Calm Calm - N/A   Overcast
10:15 AM 33.8 °F - 26.6 °F 75% 30.39 in 10.0 mi Calm Calm - N/A   Overcast
10:35 AM 35.6 °F - 28.4 °F 75% 30.38 in 10.0 mi Calm Calm - N/A   Partly Cloudy
10:55 AM 37.4 °F - 28.4 °F 70% 30.38 in 10.0 mi Calm Calm - N/A   Clear
11:15 AM 37.4 °F - 26.6 °F 65% 30.37 in 10.0 mi Calm Calm - N/A   Scattered Clouds
11:35 AM 37.4 °F - 26.6 °F 65% 30.36 in 10.0 mi Calm Calm - N/A   Mostly Cloudy
11:55 AM 37.4 °F 33.8 °F 26.6 °F 65% 30.36 in 10.0 mi WSW 4.6 mph - N/A   Partly Cloudy
12:15 PM 37.4 °F - 26.6 °F 65% 30.35 in 10.0 mi Calm Calm - N/A   Clear
12:35 PM 37.4 °F 34.9 °F 26.6 °F 65% 30.34 in 10.0 mi WNW 3.5 mph - N/A   Clear
12:55 PM 37.4 °F - 26.6 °F 65% 30.33 in 10.0 mi Calm Calm - N/A   Clear
1:15 PM 39.2 °F 32.5 °F 26.6 °F 61% 30.33 in 10.0 mi South 10.4 mph - N/A   Partly Cloudy
1:35 PM 39.2 °F 34.2 °F 26.6 °F 61% 30.32 in 10.0 mi South 6.9 mph - N/A   Clear
1:55 PM 41.0 °F - 26.6 °F 57% 30.30 in 10.0 mi Calm Calm - N/A   Clear
2:15 PM 39.2 °F 34.2 °F 26.6 °F 61% 30.29 in 10.0 mi South 6.9 mph - N/A   Clear
2:35 PM 41.0 °F 39.0 °F 26.6 °F 57% 30.28 in 10.0 mi SSW 3.5 mph - N/A   Clear
2:55 PM 41.0 °F - 26.6 °F 57% 30.28 in 10.0 mi Calm Calm - N/A   Clear
3:15 PM 41.0 °F - 26.6 °F 57% 30.27 in 10.0 mi Calm Calm - N/A   Clear
3:35 PM 42.8 °F - 26.6 °F 53% 30.26 in 10.0 mi Calm Calm - N/A   Clear
3:55 PM 42.8 °F - 26.6 °F 53% 30.24 in 10.0 mi Calm Calm - N/A   Clear
4:15 PM 41.0 °F - 24.8 °F 53% 30.24 in 10.0 mi Calm Calm - N/A   Clear
4:35 PM 42.8 °F - 24.8 °F 49% 30.24 in 10.0 mi Calm Calm - N/A   Clear
4:55 PM 41.0 °F - 24.8 °F 53% 30.23 in 10.0 mi Calm Calm - N/A   Clear
5:15 PM 39.2 °F - 24.8 °F 56% 30.22 in 10.0 mi Calm Calm - N/A   Clear
5:35 PM 39.2 °F - 24.8 °F 56% 30.21 in 10.0 mi Calm Calm - N/A   Clear
5:55 PM 37.4 °F - 26.6 °F 65% 30.20 in 10.0 mi Calm Calm - N/A   Clear
6:15 PM 37.4 °F - 26.6 °F 65% 30.19 in 10.0 mi Calm Calm - N/A   Clear
6:35 PM 35.6 °F - 24.8 °F 65% 30.18 in 10.0 mi Calm Calm - N/A   Clear
6:55 PM 37.4 °F - 24.8 °F 60% 30.18 in 10.0 mi Calm Calm - N/A   Clear
7:15 PM 33.8 °F - 26.6 °F 75% 30.18 in 10.0 mi Calm Calm - N/A   Clear
7:35 PM 33.8 °F - 26.6 °F 75% 30.17 in 10.0 mi Calm Calm - N/A   Clear
7:55 PM 33.8 °F - 26.6 °F 75% 30.15 in 10.0 mi Calm Calm - N/A   Clear
8:15 PM 33.8 °F - 26.6 °F 75% 30.14 in 10.0 mi Calm Calm - N/A   Clear
8:35 PM 33.8 °F - 26.6 °F 75% 30.14 in 10.0 mi Calm Calm - N/A   Clear
8:55 PM 33.8 °F - 26.6 °F 75% 30.13 in 10.0 mi Calm Calm - N/A   Clear
9:15 PM 33.8 °F - 26.6 °F 75% 30.12 in 10.0 mi Calm Calm - N/A   Clear
9:35 PM 33.8 °F - 26.6 °F 75% 30.10 in 10.0 mi Calm Calm - N/A   Clear
9:55 PM 33.8 °F - 26.6 °F 75% 30.08 in 10.0 mi Calm Calm - N/A   Clear
10:15 PM 33.8 °F - 26.6 °F 75% 30.08 in 10.0 mi Calm Calm - N/A   Clear
10:35 PM 33.8 °F - 26.6 °F 75% 30.06 in 10.0 mi Calm Calm - N/A   Clear
11:15 PM 32.0 °F - 28.4 °F 87% 30.04 in 10.0 mi Calm Calm - N/A   Clear
11:35 PM 33.8 °F - 26.6 °F 75% 30.03 in 10.0 mi Calm Calm - N/A   Clear
11:55 PM 32.0 °F - 28.4 °F 87% 30.02 in 10.0 mi Calm Calm - N/A   Clear